Location: Unspecified
(0.0000°N, 0.0000°E)
Time: 13:24:19
(UTC+00:00)

Hubble Space Telescope - Pass Details

Date: 08 May 2026
Orbit: 473 x 476 km, 28.5° (Epoch: 18 May)

Event Time Altitude Azimuth Distance (km) Brightness Sun altitude
Rises 18:50:25 0° 323° (NW) 2,495 5.2 -12.9°
Reaches altitude 10° 18:53:01 10° 340° (NNW) 1,621 3.7 -13.5°
Maximum altitude 18:55:49 20° 29° (NNE) 1,140 2.3 -14.1°
Enters shadow 18:57:19 16° 60° (ENE) 1,299 2.3 -14.5°
